Location: Rio de Janeiro
(22.9068°S, 43.1729°W)
Time: 19:56:05
(UTC-03:00)

Tiangong - Visible Passes

Search period start: 13 March 2026 00:00
Search period end: 23 March 2026 00:00
Orbit: 381 x 390 km, 41.5° (Epoch: 13 March)

Date Brightness Start Highest point End Pass type
(mag) Time Alt. Az. Time Alt. Az. Time Alt. Az.
17 Mar 1.1 20:01:39 10° SSW 20:01:50 11° SSW 20:01:50 11° SSW visible
18 Mar -0.1 19:02:31 10° SSW 19:04:33 16° SSE 19:05:02 15° SE visible
19 Mar -0.6 19:38:32 10° SW 19:40:30 33° SW 19:40:30 33° SW visible
20 Mar -1.0 18:38:55 10° SSW 18:41:46 29° SSE 18:43:48 15° E visible
21 Mar -1.3 19:15:33 10° WSW 19:18:36 45° NW 19:19:26 35° N visible
